This demonstration page uses our WeatherBlox Daily Observations layout. Learn more.

Left ArrowRight Arrow

39.08367, -84.50855

Hourly Observations for November 30, 2019

Temp ( °F °C ) Dew Point ( °F °C ) Humidity (%) Winds ( mph kmh ) Pressure ( in mb ) Visibility ( mi km ) Precip ( " mm )
12:53 am 00:53 Cloudy 41 5 33 0.6 73 73 NNE 6 9 30.15 1021 10 16 N/A
1:53 am 01:53 Cloudy 40 4.4 32 undefined 73 73 ESE 3 6 30.09 1019 10 16 N/A
2:53 am 02:53 Cloudy with Rain 39 3.9 36 2.2 89 89 NNE 7 11 30.10 1019 5 8 0.07 1.78
3:53 am 03:53 Cloudy with Light Rain 38 3.3 37 2.8 97 97 N N/A 30.10 1019 5 8 0.10 2.54
4:53 am 04:53 Cloudy with Rain 38 3.3 36 2.2 93 93 SSE 3 6 30.06 1018 5 8 0.06 1.52
5:53 am 05:53 Cloudy with Rain 38 3.3 37 2.8 97 97 N N/A 30.06 1018 4 6 0.09 2.29
6:18 am 06:18 Cloudy with Rain 38 3.3 37 2.8 97 97 NNW 3 6 30.08 1019 4 6 0.06 1.52
6:53 am 06:53 Cloudy with Rain 38 3.3 37 2.8 97 97 E 5 7 30.06 1018 4 6 0.14 3.56
7:16 am 07:16 Cloudy with Rain 38 3.3 37 2.8 97 97 E 3 6 30.06 1018 5 8 0.04 1.02
7:53 am 07:53 Cloudy with Rain 38 3.3 37 2.8 97 97 E 6 9 30.02 1017 5 8 0.09 2.29
8:53 am 08:53 Cloudy with Light Rain 39 3.9 37 2.8 93 93 N N/A 30.01 1016 7 11 0.03 0.76
9:53 am 09:53 Cloudy with Light Rain 40 4.4 38 3.3 93 93 ESE 3 6 29.96 1015 10 16 0.01 0.25
10:53 am 10:53 Cloudy with Light Rain 41 5 39 3.9 93 93 SE 6 9 29.95 1014 10 16 0.01 0.25
1:53 pm 13:53 Cloudy with Light Rain 41 5 40 4.4 96 96 NE 6 9 29.87 1012 10 16 0.00 0.00
2:53 pm 14:53 Cloudy with Light Rain 41 5 40 4.4 96 96 ENE 7 11 29.87 1011 6 10 0.11 2.79
3:53 pm 15:53 Cloudy 42 5.6 40 4.4 92 92 E 8 13 29.79 1009 10 16 0.01 0.25
4:53 pm 16:53 Cloudy with Light Rain 42 5.6 40 4.4 92 92 WSW 3 6 29.86 1011 10 16 0.00 0.00
5:34 pm 17:34 Cloudy with Heavy Rain 42 5.6 40 4.4 92 92 ENE 14 22 29.74 1007 4 6 0.11 2.79
5:53 pm 17:53 Cloudy with Light Rain 43 6.1 41 5 93 93 E 7 11 29.72 1006 10 16 0.12 3.05
6:02 pm 18:02 Mostly Cloudy 42 5.6 40 4.4 92 92 E 8 13 29.71 1006 10 16 0.00 0.00
6:09 pm 18:09 Cloudy 43 6.1 40 4.4 89 89 E 6 9 29.71 1006 10 16 0.00 0.00
6:53 pm 18:53 Cloudy 43 6.1 41 5 93 93 SSW 7 11 29.72 1006 10 16 0.00 0.00
7:53 pm 19:53 Cloudy 43 6.1 41 5 93 93 VRB 3 6 29.71 1006 10 16 N/A
8:53 pm 20:53 Cloudy 44 6.7 42 5.6 93 93 N N/A 29.68 1005 10 16 N/A
9:53 pm 21:53 Cloudy 45 7.2 43 6.1 93 93 N 3 6 29.62 1003 10 16 N/A
10:53 pm 22:53 Cloudy with Light Rain 45 7.2 44 6.7 97 97 N N/A 29.59 1002 10 16 0.00 0.00
11:53 pm 23:53 Cloudy 46 7.8 45 7.2 96 96 N N/A 29.54 1001 10 16 0.00 0.00

Powered by AerisWeather